Location: Ravensburg
(47.7866°N, 9.6124°E)
Time: 20:50:59
(UTC+02:00)

ITAMSAT 1 - Pass Details

Date: 16 March 2026
Orbit: 782 x 793 km, 98.7° (Epoch: 14 April)

Event Time Altitude Azimuth Distance (km) Brightness Sun altitude
Exits shadow 21:33:28 52° 355° (N) 970 8.2 -30.1°
Drops below altitude 10° 21:37:24 10° 347° (NNW) 2,357 10.7 -30.6°
Sets 21:39:43 0° 347° (NNW) 3,291 11.6 -30.9°
